Regional Weather Roundup
Issued by NWS

Home | Current Version | Previous Version | Text Only | Print | Product List | Glossary Off
Versions: 1 2 3 4 5 6 7 8 9 10 11 12 13 14 15 16 17 18 19 20 21 22 23 24 25 26 27 28 29 30 31 32 33 34 35 36 37 38 39 40 41 42 43 44 45 46 47 48 49 50

000
ASUS43 KLOT 291908
RWRIL

ILLINOIS REGIONAL WEATHER ROUNDUP
NATIONAL WEATHER SERVICE CHICAGO/ROMEOVILLE IL
200 PM CDT SAT APR 29 2017

NOTE: "FAIR" INDICATES FEW OR NO CLOUDS BELOW 12,000 FEET WITH NO
SIGNIFICANT WEATHER AND/OR OBSTRUCTIONS TO VISIBILITY.

* THESE STATIONS ARE NOT UNDER NWS QUALITY CONTROL. THEY ALSO MAY NOT
  REPORT WEATHER SUCH AS PRECIPITATION OR FOG.

ILZ001-002-007-009-015-016-024-292000-
NORTHWEST ILLINOIS

CITY           SKY/WX    TMP DP  RH WIND       PRES   REMARKS
MOLINE         RAIN      43  39  86 NE20G28   30.07S
STERLING*      LGT RAIN  42  40  92 NE17G23   30.08F
SAVANNA*       LGT RAIN  44  39  85 NE15G23   30.11F
$$

ILZ003-004-008-010-011-017-018-292000-
NORTH CENTRAL ILLINOIS

CITY           SKY/WX    TMP DP  RH WIND       PRES   REMARKS
ROCKFORD       LGT RAIN  43  36  76 NE17G28   30.16F
FREEPORT*      LGT RAIN  42  36  80 NE18G30   30.15F
ROCHELLE*      LGT RAIN  40  37  89 NE25G33   30.12F
DE KALB*       LGT RAIN  39  36  91 NE22G29   30.14F WCI  28
PERU*          LGT RAIN  39  37  91 NE30G43   30.03F WCI  27
$$

ILZ005-006-012>014-019>023-292000-
NORTHEAST ILLINOIS

CITY           SKY/WX    TMP DP  RH WIND       PRES   REMARKS
CHICAGO-OHARE  LGT RAIN  40  36  86 N21G31    30.16F FOG
CHICAGO-MIDWAY LGT RAIN  41  38  89 N23G37    30.13F
AURORA         LGT RAIN  41  37  86 NE24G33   30.11F FOG
LANSING*       LGT RAIN  42  41  97 N9G33     30.13F
JOLIET*        LGT RAIN  43  41  94 NE17G29   30.08F
WAUKEGAN       LGT RAIN  39  34  82 N15G24    30.20F WCI  31
DUPAGE AIRPORT LGT RAIN  39  37  92 NE22G28   30.13F FOG     WCI  29
KANKAKEE*      CLOUDY    44  42  93 NE14G23   30.09R
WHEELING       RAIN      39  37  92 N16G24    30.19F FOG     WCI  30
MORRIS*        RAIN      42  40  92 NE8G24    30.08F
ROMEOVILLE*    LGT RAIN  40  40  99 NE26G35   30.06F
NORTHERLY ISL    N/A     40  36  86 MISG        N/A
$$

LMZ740>746-292000-
SOUTHERN LAKE MICHIGAN

STATION/POSITION SKY/WX   TEMP    WIND        PRES    VSBY  WAVE
                          AIR SEA DIR/SP/G                  HT/PER
                          (F)     (DEG/KT/KT) (MB)    (MI)  (FT/S)
SOUTHERN BUOY              40 41   10/ 19/ 23 1023.7          5/ 6
HARRISON CRIB              41      10/ 29/ 32   N/A
BURNHAM HARBOR             40     330/ 18/ 24   N/A
CALUMET HARBOR             41     350/ 17/ 25 1020.1F
BURNS HARBOR               43      20/ 25/ 27 1019.3F
MICHIGAN CITY              42      10/ 23/ 24   N/A
MICHIGAN CITY 6N           42 47                N/A           6/ 5
ST. JOSEPH                 44 48   40/ 17/ 21 1021.9          4/ 6
$$

ILZ025>027-034>036-040-047-049-050-058-095>099-292000-
WEST-CENTRAL ILLINOIS

CITY           SKY/WX    TMP DP  RH WIND       PRES   REMARKS
QUINCY         TSTM      46  45  96 NE21      29.93F FOG
GALESBURG*     TSTM      42  40  93 NE15      30.05R
MACOMB*        TSTM      44  42  96 NE21      30.03F
JACKSONVILLE*  TSTM      49  48  97 NE23      29.89F
PITTSFIELD*    CLOUDY    49  49  98 NE13G25   29.86F THUNDER
$$

ILZ028>032-037-038-041>044-048-051>054-059>061-292000-
CENTRAL ILLINOIS

CITY           SKY/WX    TMP DP  RH WIND       PRES   REMARKS
PONTIAC        LGT RAIN  46  45  99 NE22      30.09R
BLOOMINGTON    RAIN      45  43  93 NE26      30.02F FOG
DECATUR        CLOUDY    55  55 100 E18       29.95S
PEORIA         LGT RAIN  45  44  97 NE17G26   30.02R FOG
LACON*         RAIN      42  40  93 NE18G28   30.06R
LINCOLN*       CLOUDY    49  49  99 NE20G28   29.96F
SPRINGFIELD    TSTM      52  50  93 E16       29.92F FOG
TAYLORVILLE    CLOUDY    55  55  99 E12G21    29.91F FOG
$$

ILZ033-039-045-046-055>057-062-063-292000-
EAST-CENTRAL ILLINOIS

CITY           SKY/WX    TMP DP  RH WIND       PRES   REMARKS
CHAMPAIGN      CLOUDY    56  53  90 NE18      29.99R
RANTOUL*       CLOUDY    54  52  94 NE16G25   30.01R
MATTOON        CLOUDY    61  60  97 E7        29.95F
PARIS*         CLOUDY    62  62  99 E10       29.99S FOG
$$

ILZ079-100>102-292000-
SOUTHWEST ILLINOIS

CITY           SKY/WX    TMP DP  RH WIND       PRES   REMARKS
ALTON          CLOUDY    63  63 100 E16       29.83F
BELLEVILLE     CLOUDY    73  72  99 E18G26    29.82F
CAHOKIA*       CLOUDY    71  64  78 SE16G22   29.80F
SPARTA*        CLOUDY    73  68  83 SE14      29.85F
$$

ILZ064>066-069>071-074>076-080>082-084>086-088>090-092>094-292000-
SOUTH-CENTRAL ILLINOIS

CITY           SKY/WX    TMP DP  RH WIND       PRES   REMARKS
CARBONDALE     CLOUDY    79  71  76 S14G23    29.86S HX  82
CAIRO*         MOSUNNY   83  69  62 SE17      29.87S HX  86
EFFINGHAM*     CLOUDY    68  68 100 E8        29.95S
MARION         PTSUNNY   79  75  89 S9        29.88F HX  82
MT. VERNON     PTSUNNY   76  68  76 SE13G18   29.90S
CENTRALIA*     CLOUDY    75  67  77 SE12G17   29.88F
SALEM*         CLOUDY    75  65  70 SE10G18   29.90S
METROPOLIS*    CLOUDY    84  69  58 SE12      29.90S HX  88
$$

ILZ067-068-072-073-078-083-087-091-292000-
SOUTHEAST ILLINOIS

CITY           SKY/WX    TMP DP  RH WIND       PRES   REMARKS
LAWRENCEVILLE  CLOUDY    77  65  66 SE18G26   29.94F
FLORA*         CLOUDY    76  67  73 SE16G23   29.92R
FAIRFIELD*     PTSUNNY   77  69  74 SE13      29.90S
HARRISBURG*    MOSUNNY   80  73  78 SE16      29.89F HX  84
ROBINSON*      PTSUNNY   76  66  72 SE15      29.95F
CARMI*         MOSUNNY   78  70  77 SE18G24   29.91S HX  80
$$

ABBREVIATIONS USED IN REMARKS
   TC - TEMPERATURE IN CELSIUS
  WCI - WIND CHILL INDEX
   HX - HEAT INDEX
  VSB - VISIBILITY
$$





USA.gov is the U.S. government's official web portal to all federal, state and local government web resources and services.